Retour au catalogue

STARLINK-30885

ActifCommunicationsVLEO
NORAD 58361·PAYLOAD·🇺🇸 United States

Lancé Nov 18, 2023 depuis Cape Canaveral Space Force Station

Loading…

Prochains Passages (prochaines 24 heures)

TLE

FraisSource: CelesTrak SupGP

Époque: Sep 15, 2026, 02:35 UTC

1 58361C 23177L   26258.10812500 -.00022071  00000+0 -79964-3 0  2582
2 58361  43.0042   0.7691 0001763 258.7233 248.5543 15.27580067    11

Suivez STARLINK-30885 en temps réel avec AllMySat

Download on the App Store